Location: Pl�tzky
(52.0521°N, 11.8020°E)
Time: 19:43:37
(UTC+00:00)

Cosmos 2278 - Pass Details

Date: 22 November 2019
Orbit: 838 x 854 km, 71.1° (Epoch: 14 December)

Event Time Altitude Azimuth Distance (km) Brightness Sun altitude
Rises 15:58:03 0° 184° (S) 3,394 7.3 -6.9°
Reaches altitude 10° 16:00:35 10° 177° (S) 2,466 6.4 -7.3°
Maximum altitude 16:05:51 41° 109° (ESE) 1,219 4.2 -8.0°
Drops below altitude 10° 16:11:09 10° 41° (NE) 2,491 5.6 -8.8°
Enters shadow 16:11:58 - 38° (NE) 2,783 5.9 -8.9°
